Home > Weather > Kriens > Past weeks

Flag for Switzerland Past Weather in Kriens, Lucerne, Switzerland — Yesterday and Last 2 Weeks

Now
52 °F

Cool.


Feels Like: 52 °F
Forecast: 55 / 80 °F
Wind: 1 mph from Northwest

Location: Giswil

Current Time: May 26, 2016 at 2:44:33 AM

Latest Report: May 26, 2016 at 2:00 AM


Visibility: N/A

Pressure: 30.02 "Hg

Humidity: 100%

Dew Point: 52 °F

Location of KriensLocation

Past Weather in Kriens — Graph

°F

Kriens Temperature Yesterday

Maximum temperature yesterday: 67 °F (at 3:00 PM)
Minimum temperature yesterday: 41 °F (at 6:00 AM)
Average temperature yesterday: 55 °F

High & Low Weather Summary for the Past Weeks

 TemperatureHumidityPressure
High82 °F (May 22, 3:00 PM)100% (May 13, 11:00 PM)30.24 "Hg (May 13, 11:00 PM)
Low37 °F (May 20, 6:00 AM)22% (May 22, 5:00 PM)29.47 "Hg (May 11, 7:00 PM)
Average53 °F79%29.93 "Hg
* Reported May 11 1:00 AM — May 26 1:00 AM, Kriens, Weather by CustomWeather, © 2016

Note: Actual official high and low records may vary slightly from our data, if they occured in-between our weather recording intervals... More about our weather records

Advertising

Kriens Weather History for the Previous 24 Hours

Scroll right to see more
 ConditionsComfort  
Time TempWeatherWind HumidityBarometerVisibility
1:00 AM
Thu, May 26
54 °FCool.2 mph100%30.00 "HgN/A
12:00 AM55 °FCool.1 mph98%30.00 "HgN/A
11:00 PM
Wed, May 25
56 °FCool.1 mph97%29.99 "HgN/A
10:00 PM56 °FCool.No wind99%29.98 "HgN/A
9:00 PM58 °FCool.No wind97%29.98 "HgN/A
8:00 PM59 °FCool.1 mph91%29.98 "HgN/A
7:00 PM60 °FCool.3 mph84%29.96 "HgN/A
6:00 PM65 °FMild.1 mph62%29.92 "HgN/A
5:00 PM67 °FMild.2 mph53%29.90 "HgN/A
4:00 PM67 °FMild.2 mph53%29.89 "HgN/A
3:00 PM67 °FMild.3 mph55%29.89 "HgN/A
2:00 PM65 °FMild.5 mph59%29.90 "HgN/A
1:00 PM63 °FMild.3 mph60%29.91 "HgN/A
12:00 PM61 °FCool.3 mph62%29.93 "HgN/A
11:00 AM58 °FCool.2 mph64%29.95 "HgN/A
9:00 AM53 °FCool.1 mph75%29.97 "HgN/A
8:00 AM50 °FCool.1 mph87%29.97 "HgN/A
7:00 AM44 °FQuite cool.1 mph96%29.99 "HgN/A
6:00 AM41 °FQuite cool.2 mph99%29.99 "HgN/A
5:00 AM44 °FQuite cool.2 mph97%29.98 "HgN/A
4:40 AM44 °FQuite cool.1 mph97%29.97 "HgN/A
4:00 AM46 °FCool.2 mph95%29.97 "HgN/A
3:00 AM48 °FCool.1 mph95%29.96 "HgN/A
2:00 AM49 °FCool.1 mph94%29.96 "HgN/A
Weather by CustomWeather, © 2016

See weather overviewHow to use our weather pages